Location: Czekanka
(50.4925°N, 19.2643°E)
Time: 12:17:11
(UTC+00:00)

GEOS 3 Rocket - Pass Details

Date: 15 June 2024
Orbit: 784 x 831 km, 115.0° (Epoch: 15 July)

Event Time Altitude Azimuth Distance (km) Brightness Sun altitude
Rises 00:09:36 0° 41° (NE) 3,339 8.2 -13.8°
Reaches altitude 10° 00:11:56 10° 37° (NE) 2,397 7.3 -13.6°
Maximum altitude 00:17:01 57° 320° (NW) 939 4.1 -13.3°
Enters shadow 00:21:59 10° 243° (WSW) 2,344 5.6 -13.0°
